Change the Weather History Date:

Tuesday, December 18, 2012

  Actual Average Record
Temperature  
Mean Temperature 77 °F -  
Max Temperature 86 °F - - ()
Min Temperature 68 °F 68 °F - ()
Cooling Degree Days 12    
Growing Degree Days 27 (Base 50)    
Moisture  
Dew Point 74 °F    
Average Humidity 86    
Maximum Humidity 100    
Minimum Humidity 59    
Precipitation  
Precipitation 0.00 in 0.20 in - ()
Sea Level Pressure  
Sea Level Pressure 29.92 in    
Wind  
Wind Speed 3 mph ()    
Max Wind Speed 8 mph    
Max Gust Speed -    
Visibility 5.8 miles    
Events Fog    
T = Trace of Precipitation, MM = Missing Value Source: Averaged Metar Reports

Daily Weather History Graph

Daily Weather History Graph

Search for Another Location

Airport or City:

Trip Planner

Search our weather history database for the weather conditions in past years. The results will help you decide how hot, cold, wet, or windy it might be!

Date:

Astronomy

Dec. 18, 2012 Rise Set
Actual Time 6:17 AM CST 5:22 PM CST
Civil Twilight 5:54 AM CST 5:46 PM CST
Nautical Twilight 5:26 AM CST 6:13 PM CST
Astronomical Twilight 5:00 AM CST 6:40 PM CST
Moon 10:42 AM CST (12/18) 10:58 PM CST (12/18)
Length of Visible Light 11h 52m
Length of Day
11h 05m
Waxing Crescent, 35% of the Moon is Illuminated
Dec 18
Waxing Crescent
Dec 19
First Quarter
Dec 28
Full
Jan 4
Last Quarter
Jan 11
New

Hourly Weather History & Observations

Time (CST) Temp. Heat Index Dew Point Humidity Pressure Visibility Wind Dir Wind Speed Gust Speed Precip Events Conditions
12:00 AM 73 °F - 72 °F 95% 29.91 in 12 mi Calm Calm - -   Scattered Clouds
3:00 AM 71 °F - 69 °F 92% 29.89 in 12 mi WSW 2.3 mph - -   Scattered Clouds
5:00 AM 68.0 °F - 68.0 °F 100% 29.89 in 0.1 mi Calm Calm - N/A Fog Fog
6:00 AM 70 °F - 70 °F 100% 29.93 in 0 mi WNW 3.5 mph - - Fog Heavy Fog
6:00 AM 69.8 °F - 69.8 °F 100% 29.92 in 0.1 mi WNW 3.5 mph - N/A Fog Fog
7:00 AM 69.8 °F - 69.8 °F 100% 29.92 in 0.2 mi Calm Calm - N/A Fog Fog
8:00 AM 71.6 °F - 71.6 °F 100% 29.95 in 0.2 mi Calm Calm - N/A Fog Fog
9:00 AM 75 °F - 74 °F 97% 29.98 in 0 mi WSW 3.5 mph - - Fog Heavy Fog
9:00 AM 75.2 °F - 75.2 °F 100% 29.97 in 0.5 mi WSW 3.5 mph - N/A Fog Fog
9:10 AM 75.2 °F - 75.2 °F 100% 29.97 in 1.6 mi West 3.5 mph - N/A Fog Fog
9:30 AM 75.2 °F - 75.2 °F 100% 29.97 in 3.1 mi West 4.6 mph - N/A Fog Fog
9:45 AM 75.2 °F - 75.2 °F 100% 29.97 in 6.2 mi West 4.6 mph - N/A   Mostly Cloudy
10:00 AM 78.8 °F - 75.2 °F 89% 29.97 in 6.2 mi West 4.6 mph - N/A   Partly Cloudy
11:00 AM 84.2 °F 92.3 °F 75.2 °F 74% 29.96 in 6.2 mi ENE 2.3 mph - N/A   Scattered Clouds
12:00 PM 86 °F - 76 °F 64% 29.94 in 12 mi ENE 6.9 mph - -   Partly Cloudy
12:00 PM 86.0 °F 95.1 °F 75.2 °F 70% 29.93 in 6.2 mi ENE 6.9 mph - N/A   Scattered Clouds
1:00 PM 86.0 °F 95.1 °F 75.2 °F 70% 29.90 in 6.2 mi ENE 4.6 mph - N/A   Scattered Clouds
2:00 PM 86.0 °F 93.4 °F 73.4 °F 66% 29.88 in 6.2 mi ENE 5.8 mph - N/A   Partly Cloudy
3:00 PM 86 °F - 74 °F 59% 29.88 in 16 mi ENE 5.8 mph - -   Scattered Clouds
3:00 PM 86.0 °F 93.4 °F 73.4 °F 66% 29.87 in 6.2 mi ENE 5.8 mph - N/A   Partly Cloudy
4:00 PM 86.0 °F 95.1 °F 75.2 °F 70% 29.87 in 6.2 mi ENE 8.1 mph - N/A   Partly Cloudy
5:00 PM 82.4 °F 89.5 °F 75.2 °F 79% 29.89 in 6.2 mi East 5.8 mph - N/A   Partly Cloudy
6:00 PM 81 °F - 77 °F 83% 29.90 in 12 mi East 3.5 mph - -   Scattered Clouds
6:00 PM 80.6 °F 87.1 °F 77.0 °F 89% 29.90 in 6.2 mi East 3.5 mph - N/A   Partly Cloudy
7:00 PM 80.6 °F 86.2 °F 75.2 °F 84% 29.90 in 6.2 mi ENE 3.5 mph - N/A   Partly Cloudy
9:00 PM 79 °F - 76 °F 87% 29.94 in 12 mi East 3.5 mph - -   Scattered Clouds